Theta_e
314 316 318 318 319 320 323 325 325 328 327 328 330 330 331 332 331 331 330 329 329 330 328 328 329 330 331 330 332 334 337 338 337 340 342 339 336 335 335 334 334 334 334 335
315 318 319 318 318 319 321 323 325 326 325 327 329 331 332 332 332 331 331 330 329 329 330 331 330 332 332 332 331 334 337 337 338 340 338 337 335 335 335 335 334 334 334 331
315 316 317 318 318 319 321 322 324 324 324 326 328 330 332 331 331 330 330 329 330 328 327 328 330 334 335 334 333 334 336 338 338 337 336 336 335 335 335 334 332 331 332 331
313 316 315 318 319 319 321 320 321 322 324 327 327 331 333 332 332 333 331 331 329 328 328 330 331 336 337 337 338 338 337 336 335 337 335 334 336 333 333 334 334 333 333 332
310 313 316 316 319 319 320 320 321 322 324 326 326 328 329 330 331 331 331 330 328 328 330 330 338 338 338 339 339 338 338 334 337 335 336 336 335 332 331 333 333 333 333 331
310 311 313 317 317 318 320 320 320 322 324 327 328 327 328 329 330 329 330 328 328 329 330 334 338 338 339 339 339 339 337 337 336 336 336 336 335 333 334 334 333 332 332 329
313 312 311 313 316 318 319 323 324 324 325 327 326 327 329 328 329 329 329 329 329 330 331 337 339 338 338 338 339 338 337 338 337 336 337 333 334 331 333 331 333 333 332 329
318 318 311 313 315 318 319 323 323 324 324 325 324 327 327 328 329 328 328 329 330 331 336 338 338 338 338 338 338 338 338 338 337 337 335 334 334 334 333 332 332 331 332 331
316 318 316 312 315 317 320 321 323 324 324 324 326 327 328 329 330 330 331 330 331 336 337 337 337 337 337 338 337 337 338 338 336 334 334 333 334 334 334 333 331 329 328 330
312 315 316 317 313 316 319 320 322 324 324 327 326 328 330 333 333 331 332 332 331 337 337 337 337 337 337 337 337 337 337 336 334 334 333 334 331 331 331 331 331 329 331 331
312 314 316 317 315 316 319 319 321 325 324 326 328 328 334 333 330 331 333 330 331 337 337 337 337 337 337 337 337 337 336 334 333 333 333 332 332 332 331 331 332 331 330 330
312 316 320 318 318 316 320 320 322 325 326 325 327 328 331 330 329 331 331 329 334 336 336 337 336 336 337 337 337 336 334 333 333 332 333 331 333 332 331 332 330 332 330 330
312 316 318 318 318 320 321 321 323 325 329 328 327 329 330 327 329 329 332 328 336 336 336 336 336 336 337 336 336 333 332 332 332 332 332 333 333 331 332 331 331 330 329 331
312 313 315 320 320 320 324 323 322 324 326 326 328 327 327 328 331 331 333 336 336 336 336 335 335 336 336 336 334 332 331 332 331 332 332 333 333 331 330 331 331 332 330 330
313 314 314 315 314 317 320 321 322 323 326 326 327 329 327 331 333 336 337 337 336 336 335 335 335 336 336 335 332 330 330 331 331 331 333 331 332 330 330 329 330 330 330 329
312 314 314 317 315 314 316 319 322 322 323 326 328 329 329 329 329 334 335 335 336 335 335 335 335 335 335 334 330 329 329 331 330 331 334 331 333 331 330 329 329 329 329 329
313 315 319 318 315 317 319 322 324 325 325 326 328 330 330 329 327 330 334 335 335 334 334 334 335 335 335 333 329 329 329 330 330 331 334 332 331 330 329 330 330 330 329 330
313 314 317 319 318 318 319 324 324 322 324 327 327 324 325 326 325 327 331 333 334 334 334 334 334 334 334 332 328 329 329 329 329 331 331 332 332 329 330 329 330 330 328 328
312 313 320 320 321 319 322 327 328 323 328 328 328 326 324 325 330 331 330 331 333 334 334 334 334 334 334 331 328 328 329 329 328 330 331 331 332 330 329 331 328 329 328 327
312 313 317 318 324 325 325 324 324 325 330 327 328 329 329 327 330 332 329 329 330 332 334 334 335 335 334 331 329 328 328 328 327 329 330 331 332 330 328 329 330 327 328 329
312 315 318 320 322 323 318 321 323 329 328 326 326 326 326 328 328 327 327 328 329 330 334 335 335 335 335 331 329 328 328 328 327 329 330 330 332 330 329 328 330 328 329 330
318 319 319 319 321 324 315 320 325 322 322 323 324 324 324 325 326 327 328 328 329 330 332 336 336 336 335 332 329 328 328 327 326 328 329 330 333 332 330 327 329 330 327 328
318 314 316 318 319 315 316 317 317 318 320 321 322 323 323 324 325 327 328 329 329 329 332 333 336 337 336 332 330 329 328 327 325 327 328 329 333 333 330 328 329 329 331 328
313 313 315 316 314 317 315 316 317 316 317 319 319 320 322 324 324 326 328 329 331 330 331 332 337 337 337 334 331 329 328 327 325 326 328 329 332 335 332 330 327 327 331 331
313 314 314 315 314 314 313 313 315 316 316 317 317 318 320 323 324 325 327 329 332 332 332 332 335 337 337 335 332 330 328 327 326 326 327 328 331 334 333 330 328 326 327 330
311 312 313 314 312 312 312 312 313 314 315 317 317 317 319 321 323 324 326 329 333 335 333 333 333 337 337 337 334 331 328 327 326 326 327 328 329 331 333 332 329 328 324 324
Wind_Speed
27 16 24 40 30 29 28 32 32 28 26 27 26 27 28 23 25 24 22 25 33 31 28 24 28 27 18 21 21 22 23 27 29 24 22 20 21 21 15 15 14 15 14 19
20 27 38 22 30 30 33 31 31 28 27 23 24 27 25 22 22 26 25 27 27 29 25 25 24 17 19 18 16 19 21 24 26 24 18 19 18 16 11 12 13 15 19 19
23 37 23 29 29 30 31 30 27 30 25 27 23 25 23 24 25 27 29 30 25 21 37 36 17 16 14 12 12 14 18 23 25 20 19 17 18 14 16 15 14 16 16 11
23 26 31 29 33 32 28 28 29 28 22 19 20 18 23 19 22 20 26 28 24 32 41 23 20 17 12 10 11 15 20 21 21 18 18 20 14 12 9 9 12 12 12 10
31 26 27 31 37 28 35 23 27 27 24 21 23 14 28 17 19 19 19 25 23 33 23 20 21 16 12 14 15 17 19 21 19 21 16 15 13 8 11 6 6 8 13 14
29 33 28 30 27 33 27 26 29 26 19 18 26 19 28 18 20 19 17 24 27 25 22 16 19 17 18 16 18 19 20 21 22 21 14 13 9 10 7 8 9 13 14 11
23 27 32 29 29 29 31 23 16 18 17 20 17 19 21 21 20 19 16 19 24 22 20 27 24 22 20 21 22 21 24 21 19 17 13 11 10 9 8 6 6 11 9 6
13 18 28 29 33 27 29 26 16 26 16 20 20 24 19 24 20 21 22 23 18 22 28 25 22 24 24 24 23 22 23 18 17 13 10 9 7 2 2 7 7 7 4 3
7 15 28 30 29 29 30 28 29 24 21 19 16 18 30 25 18 15 12 19 10 22 24 25 24 25 26 26 24 24 21 18 16 13 11 8 4 4 4 5 7 3 2 2
6 14 22 26 28 33 31 20 26 18 24 23 19 21 14 14 16 11 12 13 15 27 25 24 26 26 27 25 24 22 19 18 16 12 10 8 4 3 5 3 1 1 2 4
7 8 17 22 26 29 25 26 23 20 18 16 14 14 7 3 5 5 17 19 15 29 26 27 26 27 26 25 23 22 19 17 15 11 9 6 4 2 1 2 3 2 3 8
7 4 13 23 23 22 28 25 25 18 22 18 14 15 6 6 4 7 9 23 28 29 28 28 28 28 27 25 23 21 19 17 15 12 11 7 4 2 5 4 3 2 4 7
3 8 11 16 16 21 19 29 24 21 11 19 17 15 9 6 6 7 9 20 33 30 29 28 29 28 27 25 22 20 19 17 15 14 11 9 2 3 5 4 3 2 5 10
3 8 14 12 7 13 10 20 30 26 17 18 19 10 8 8 7 9 15 32 30 29 29 29 29 28 26 24 22 20 19 17 15 15 11 9 5 4 4 5 6 4 5 12
0 8 17 19 23 16 19 30 26 29 23 21 20 18 10 10 8 11 17 23 25 27 29 30 28 28 26 25 22 20 19 18 16 15 14 9 5 7 5 6 5 9 5 10
2 4 13 18 14 11 20 34 27 28 28 26 22 16 19 12 7 10 12 17 21 26 28 28 26 26 26 24 23 21 20 19 17 15 14 8 11 8 4 2 6 10 5 9
5 4 4 5 5 4 19 24 22 23 28 25 18 5 23 9 6 6 14 17 21 25 27 28 26 26 25 24 22 22 21 19 17 16 13 12 11 6 6 4 5 9 9 10
13 11 6 3 10 5 15 16 21 17 19 21 10 8 11 19 7 4 15 10 14 24 24 27 26 26 26 23 23 21 21 20 18 16 15 14 11 10 8 3 2 9 8 9
14 6 4 4 5 7 22 10 19 2 13 20 7 8 7 6 21 19 19 19 16 13 23 26 26 27 25 24 24 23 21 20 18 16 16 14 16 10 10 5 3 8 6 6
10 7 5 5 2 7 6 18 27 4 6 18 15 16 15 6 7 8 20 17 15 9 21 26 26 26 27 26 25 24 22 21 20 18 16 15 15 14 12 8 4 6 4 6
5 5 9 8 3 4 14 25 25 6 2 10 15 17 17 12 9 12 15 15 13 13 2 27 27 28 28 28 26 25 23 22 20 18 17 16 17 15 11 9 8 4 6 10
5 4 3 4 3 3 21 12 10 10 16 18 18 16 15 14 12 12 13 14 14 11 5 23 28 28 30 29 28 26 24 22 20 20 19 18 16 15 13 9 12 6 4 7
2 4 4 7 4 8 13 11 18 16 16 18 18 18 15 15 13 12 12 11 12 11 8 7 26 29 30 30 29 27 25 23 22 21 21 21 17 19 15 11 16 8 8 13
4 10 3 7 10 3 6 15 16 20 17 15 15 20 14 14 13 11 11 10 10 10 11 13 25 29 30 30 29 27 26 24 24 24 24 23 22 18 15 13 16 12 10 11
5 9 11 1 7 13 17 20 16 18 15 11 12 13 14 12 10 10 11 11 11 10 11 16 18 30 30 31 29 28 27 26 26 26 26 24 25 21 18 16 15 14 13 13
9 7 4 4 19 12 17 20 19 15 15 7 10 12 14 16 10 12 12 14 12 11 11 14 15 30 29 31 31 30 29 29 29 29 28 26 24 27 21 21 18 17 15 14
Wind_Direction
221 217 220 220 220 238 236 237 246 253 250 247 253 257 267 274 265 258 270 268 262 258 258 261 273 279 252 252 240 238 224 212 216 214 203 200 201 219 222 223 231 239 244 241
229 218 224 230 228 233 244 247 250 260 260 260 263 260 252 256 262 262 245 248 266 281 295 272 277 240 239 249 249 234 217 213 207 204 202 197 201 223 225 227 238 236 239 276
225 236 225 232 234 236 236 236 247 258 266 266 271 269 272 270 267 269 269 264 261 270 276 273 260 226 229 241 234 209 195 195 200 195 180 198 202 206 204 212 236 261 267 281
249 243 243 227 235 231 243 234 243 250 252 258 258 269 257 263 266 261 267 266 252 255 253 250 236 198 202 203 193 187 187 196 180 181 185 197 196 210 227 225 225 236 266 271
248 247 236 239 237 228 244 243 251 248 251 259 255 260 268 271 265 255 254 255 256 253 260 256 168 175 170 176 171 177 183 165 168 178 193 196 189 218 239 230 252 275 269 278
255 253 253 247 243 247 245 240 249 257 255 246 243 244 264 256 261 265 263 259 247 257 241 190 151 154 157 160 166 173 166 154 183 170 183 185 203 194 183 208 236 265 278 271
248 244 250 249 253 235 239 231 235 234 236 242 242 241 253 265 263 265 277 277 262 256 228 145 151 150 157 161 166 167 158 173 178 175 186 196 198 202 217 265 277 286 289 275
267 257 228 237 237 238 225 232 222 221 222 239 241 251 261 253 259 251 249 249 267 225 136 143 154 155 159 163 164 162 166 171 168 174 174 180 179 199 252 245 259 289 280 286
322 282 260 227 243 237 233 224 235 245 237 245 259 248 234 245 243 232 211 242 161 130 139 148 157 158 162 164 165 168 167 167 168 171 175 168 175 202 237 259 267 262 257 211
299 285 277 271 219 242 238 227 225 225 231 246 239 242 257 185 219 218 207 220 215 142 148 155 157 160 162 164 166 167 167 169 167 171 168 158 189 239 268 257 280 159 122 115
251 222 275 286 243 219 228 225 220 241 223 238 248 267 73 85 134 218 194 204 202 148 155 158 159 160 161 163 166 166 167 168 165 166 154 169 179 282 258 135 152 230 165 156
308 298 269 269 271 236 237 223 229 218 211 227 244 238 84 150 208 233 257 195 157 151 158 159 161 161 162 165 165 167 170 167 165 158 166 146 154 237 167 126 115 127 153 145
10 235 266 253 260 266 257 227 233 236 230 216 233 247 157 169 211 237 271 169 143 151 156 159 161 164 164 166 166 169 170 168 165 166 158 148 154 83 141 153 147 145 147 144
308 258 261 268 302 333 320 267 228 222 207 226 223 210 166 197 191 203 229 129 142 154 156 160 164 167 167 167 169 170 170 170 167 172 163 154 155 106 143 145 132 124 118 150
-0 286 297 286 268 277 299 292 252 222 198 218 228 222 196 181 135 97 112 134 146 154 160 164 169 166 168 168 170 170 170 171 170 169 170 160 152 112 111 108 141 132 150 150
279 282 277 272 256 264 292 283 275 219 219 212 236 147 85 63 28 126 145 150 154 158 167 164 170 167 171 169 171 172 173 171 170 168 169 165 158 128 117 61 134 138 142 151
285 278 303 272 172 14 286 252 251 240 204 204 215 250 130 197 261 93 142 154 163 161 168 168 171 171 173 172 176 175 175 171 169 171 173 151 166 142 148 145 107 152 152 145
251 285 293 46 129 210 264 249 263 200 186 209 146 111 111 151 210 356 56 102 167 169 178 167 170 172 173 174 177 175 175 172 170 171 170 164 177 137 154 162 132 161 161 157
226 266 287 249 225 343 304 19 321 268 48 19 77 207 161 68 102 51 33 31 16 191 177 166 173 171 173 176 179 177 176 174 171 172 171 169 165 139 152 148 119 146 145 135
193 197 226 301 207 203 328 324 319 344 83 18 18 31 43 37 108 31 1 16 4 8 168 167 168 171 173 177 179 179 178 177 174 174 172 170 172 148 161 156 145 123 145 145
196 228 245 276 274 31 324 330 307 158 229 26 33 35 25 32 18 341 351 3 354 344 345 168 170 173 175 179 181 182 181 180 177 173 169 168 171 156 172 159 149 140 137 156
334 306 321 298 339 354 337 11 50 324 26 31 34 33 24 20 358 359 355 347 331 330 308 170 164 171 176 181 184 185 185 180 177 174 171 168 177 159 177 164 146 152 128 142
12 358 313 11 29 294 322 3 4 11 25 23 17 13 18 13 2 351 347 327 307 301 289 219 169 172 178 183 188 188 186 180 178 176 175 173 168 176 176 173 154 166 129 124
24 324 10 333 355 27 357 346 357 8 9 7 3 357 8 358 350 342 333 318 297 271 260 247 177 172 176 185 190 189 186 182 180 176 177 176 171 183 172 176 157 165 171 146
340 339 332 276 352 340 2 355 356 334 346 353 355 352 339 333 339 340 321 310 292 263 252 235 202 176 181 186 189 189 187 184 184 179 179 182 179 177 172 173 166 178 172 200
6 354 332 316 324 317 309 318 320 317 323 324 333 333 325 317 339 333 327 316 307 289 256 239 232 179 184 188 190 190 189 186 186 181 181 185 184 183 186 187 179 185 187 200